Location: LDNL
(36.4545°S, 141.6685°E)
Time: 22:53:40
(UTC+11:00)

Explorer 7 - Visible Passes

Search period start: 30 January 2023 00:00
Search period end: 09 February 2023 00:00
Orbit: 480 x 660 km, 50.3° (Epoch: 30 January)

Date Brightness Start Highest point End Pass type
(mag) Time Alt. Az. Time Alt. Az. Time Alt. Az.
30 Jan 8.6 04:01:03 26° SSW 04:01:03 26° SSW 04:04:26 10° SSE visible
30 Jan 9.5 05:40:51 10° SSW 05:42:20 12° S 05:43:47 10° SSE visible
31 Jan 8.9 04:01:47 20° SSW 04:02:10 20° SSW 04:05:15 10° SSE visible
31 Jan 9.6 05:42:26 10° SSW 05:43:41 11° S 05:44:55 10° SSE visible
01 Feb 9.9 02:26:25 11° SE 02:26:25 11° SE 02:26:39 10° SE visible
01 Feb 9.2 04:02:29 16° SW 04:03:24 16° SSW 04:06:04 10° SSE visible
01 Feb 9.6 05:43:40 10° SSW 05:45:02 11° S 05:46:22 10° SSE visible
02 Feb 9.9 02:27:06 12° SE 02:27:06 12° SE 02:27:32 10° SE visible
02 Feb 9.5 04:03:09 12° SW 04:04:40 14° SSW 04:06:55 10° SSE visible
02 Feb 9.6 05:44:38 10° SSW 05:46:22 12° S 05:48:04 10° SSE visible
03 Feb 9.9 02:27:46 13° SSE 02:27:46 13° SSE 02:28:22 10° SSE visible
03 Feb 9.7 04:04:06 10° SW 04:05:59 13° S 04:07:49 10° SSE visible
03 Feb 9.6 05:45:28 10° SSW 05:47:40 14° SSE 05:49:49 10° SE visible
04 Feb 9.9 02:28:26 13° SSE 02:28:26 13° SSE 02:29:09 10° SSE visible
04 Feb 9.8 04:05:40 10° SSW 04:07:17 12° S 04:08:53 10° SSE visible
04 Feb 9.5 05:46:13 10° SSW 05:48:56 17° SSE 05:51:33 10° ESE visible
05 Feb 9.9 02:29:06 13° SSE 02:29:06 13° SSE 02:29:57 10° SSE visible
05 Feb 9.8 04:06:59 10° SSW 04:08:36 12° S 04:10:12 10° SSE visible
05 Feb 9.2 05:46:58 10° SSW 05:50:08 21° SSE 05:53:10 10° ESE visible
06 Feb 10.0 02:29:50 13° S 02:29:50 13° S 02:30:46 10° SSE visible
06 Feb 9.8 04:08:01 10° SSW 04:09:54 13° S 04:11:45 10° SSE visible
06 Feb 8.8 05:47:44 10° SSW 05:51:17 28° SSE 05:54:40 10° E visible
07 Feb 10.0 02:30:39 12° S 02:30:39 12° S 02:31:39 10° SSE visible
07 Feb 9.8 04:08:52 10° SSW 04:11:11 14° SSE 04:13:25 10° SE visible
07 Feb 8.1 05:48:31 10° SW 05:52:21 40° SSE 05:56:00 10° ENE visible
08 Feb 10.1 02:31:42 12° S 02:31:42 12° S 02:32:40 10° SSE visible
08 Feb 9.6 04:09:39 10° SSW 04:12:24 17° SSE 04:15:04 10° ESE visible
08 Feb 7.2 05:49:20 10° SW 05:53:21 61° SE 05:57:10 10° ENE visible
08 Feb 8.5 21:26:26 10° N 21:29:32 18° NE 21:31:52 13° E visible
08 Feb 7.8 23:04:48 10° WNW 23:08:11 46° WNW 23:08:11 46° WNW visible
